Theta_e
348 348 346 345 344 343 343 342 342 342 342 342 342 342 342 341 341 341 340 341 341 341 340 340 340 339 339 339 339 339 339 339 339 339 338 338 338 338 338 337 337 337 336 336 336 336 336 336 335 335 334 334 333 333 333 333 332 333 334 333 333 333 332 332 332 332 332 332 332 332 331 331 332 332 332 332 331 330 330 330 329 330 331 329 328
348 347 346 345 345 343 343 342 342 342 342 342 342 342 341 341 342 341 340 340 340 341 340 340 339 339 340 339 339 339 339 339 339 339 338 338 338 338 338 337 337 337 337 337 336 336 336 336 336 335 335 334 334 333 333 333 332 333 333 333 333 333 332 332 332 332 332 331 332 332 331 331 331 331 331 332 332 331 330 329 329 329 330 331 330
348 347 346 346 345 344 343 342 342 343 342 342 342 342 341 341 341 341 340 340 340 341 340 340 339 340 340 339 339 339 339 339 339 339 338 337 337 337 337 337 337 337 337 337 337 337 336 336 336 335 335 334 334 334 333 333 333 333 333 333 333 333 332 332 332 332 331 331 331 331 331 331 332 332 331 331 332 332 331 330 330 330 330 330 330
349 348 347 346 345 344 343 342 342 343 343 342 342 342 341 342 342 341 341 340 340 341 340 340 340 340 339 338 339 338 339 339 338 337 336 336 336 336 336 336 336 337 336 336 336 336 336 335 335 335 334 334 334 334 333 333 333 333 333 333 333 333 333 333 332 332 331 331 331 331 331 330 331 332 332 332 332 332 331 330 330 330 330 330 330
348 349 347 345 344 344 343 343 342 343 343 343 342 342 342 342 342 341 341 340 340 340 340 340 340 339 339 339 339 339 338 338 337 337 336 336 336 336 336 336 336 336 335 335 334 334 335 335 334 334 334 334 333 334 334 334 333 333 333 333 333 333 332 332 332 332 331 331 330 331 332 332 331 332 333 332 332 332 331 331 330 330 330 330 330
347 347 346 346 345 344 342 340 341 343 343 343 342 342 342 342 341 341 340 340 340 340 340 340 339 338 339 339 338 338 338 337 337 337 337 337 336 336 336 335 335 335 334 334 334 334 334 334 333 333 333 332 333 333 333 333 333 333 333 333 333 333 333 333 332 332 331 331 331 331 332 332 332 332 332 332 333 332 331 331 331 330 330 330 330
348 346 346 345 343 340 336 334 340 344 343 342 342 342 342 341 341 341 340 340 340 340 340 340 339 339 340 340 338 338 337 337 337 336 337 337 336 336 335 334 334 334 333 333 333 333 333 333 332 332 332 331 331 331 332 332 332 332 332 333 333 333 333 334 333 333 332 331 331 331 331 330 330 331 331 331 332 332 332 331 331 330 330 330 330
347 347 345 339 335 333 331 334 341 344 343 343 342 342 341 340 341 340 340 340 341 341 341 340 340 340 340 338 337 337 337 337 336 336 336 336 335 335 334 333 333 333 333 333 333 333 332 333 332 332 331 331 331 331 331 331 331 331 331 331 331 332 333 333 333 333 332 332 331 330 330 330 330 330 330 330 331 332 332 331 330 330 330 330 330
346 347 340 332 332 334 334 337 342 342 343 343 342 341 340 340 340 340 340 341 341 341 340 340 339 338 337 336 336 336 336 336 336 336 336 335 334 333 332 332 331 331 332 332 333 333 333 333 332 332 332 331 331 330 330 329 329 329 330 330 329 330 331 331 332 332 332 332 331 330 331 331 331 330 329 330 330 330 332 332 331 330 330 330 330
345 340 333 332 334 335 336 338 339 339 341 342 341 340 339 339 339 340 341 340 340 339 338 337 336 335 335 335 336 337 337 337 336 336 335 333 333 332 331 331 331 331 331 331 332 332 332 332 332 332 331 331 330 330 329 329 329 328 328 329 329 329 329 329 330 331 331 332 331 331 331 331 331 330 329 330 330 330 331 331 330 330 331 331 330
337 331 331 333 332 333 335 335 334 335 336 338 340 340 339 338 338 340 341 339 338 337 335 335 335 335 335 336 337 337 336 336 336 335 333 332 332 332 331 331 331 331 331 331 331 331 331 331 331 331 330 330 330 330 329 329 328 328 328 328 328 328 328 328 328 329 330 330 330 331 331 330 331 332 331 331 330 330 330 329 330 330 330 331 330
330 329 332 332 330 332 333 332 331 332 332 336 339 340 339 338 338 340 338 337 336 335 335 336 336 336 336 336 337 336 335 334 333 332 331 331 332 331 331 331 330 330 330 330 330 329 329 329 329 329 329 329 329 329 329 328 328 328 328 328 328 328 328 328 327 328 328 329 330 330 329 329 329 330 331 331 331 331 330 330 330 330 330 330 330
330 330 331 330 330 331 332 330 330 330 331 334 337 338 339 339 339 338 337 336 336 336 336 337 337 336 336 335 334 333 332 331 331 330 330 330 330 330 329 329 329 329 329 328 328 327 328 328 328 328 328 328 328 328 328 328 328 328 328 328 327 328 327 327 327 327 327 327 328 329 328 327 328 328 329 330 331 331 331 330 330 330 330 330 330
331 330 329 329 330 330 330 330 329 328 328 330 331 333 336 338 337 337 337 336 337 337 336 336 336 335 333 333 331 331 330 329 329 328 328 328 329 329 329 328 328 328 327 327 327 326 326 327 327 327 327 327 327 327 327 327 327 327 327 327 327 327 327 327 327 327 327 327 327 328 328 328 328 328 328 328 329 330 330 331 331 330 329 330 330
331 329 329 330 331 331 330 330 329 328 328 328 328 330 332 335 336 336 335 335 335 335 334 333 332 331 330 330 329 329 328 327 327 327 328 328 328 328 327 327 327 326 326 326 325 325 325 325 326 326 327 327 326 326 327 327 327 327 327 327 327 327 327 327 327 327 328 328 328 328 328 328 329 329 329 328 328 328 328 329 330 330 330 330 330
331 330 331 332 333 331 330 330 330 329 329 329 330 329 328 330 333 333 333 333 333 333 332 331 330 329 328 328 327 327 326 327 327 327 327 327 327 326 326 325 325 324 324 323 323 324 324 324 325 325 325 326 326 326 326 327 327 326 327 327 327 327 327 328 327 327 328 328 328 328 328 329 329 329 329 328 328 328 328 328 328 329 330 330 330
333 332 332 331 332 331 331 331 330 330 330 330 330 330 329 328 330 331 331 331 331 331 330 329 328 327 326 326 326 326 326 327 327 327 326 326 325 325 324 324 323 322 322 322 322 323 323 323 323 324 325 325 326 326 326 326 326 326 327 327 326 326 327 328 327 328 328 327 327 328 328 328 328 328 328 328 328 328 328 328 328 328 328 329 330
334 331 328 329 331 331 331 330 329 330 330 329 329 329 329 329 330 330 329 329 329 328 328 326 326 325 325 325 325 325 326 325 325 325 325 324 324 323 322 322 322 322 322 321 321 321 321 321 322 323 324 324 325 325 326 326 326 326 326 327 326 326 328 328 327 327 327 327 327 328 328 328 328 328 328 328 328 328 328 328 328 328 327 328 329
333 329 328 330 331 330 330 330 329 329 329 329 328 327 328 328 328 328 327 327 327 327 326 325 324 324 324 324 324 324 324 323 323 323 322 322 321 321 321 321 321 321 321 320 320 320 321 321 322 322 323 323 324 325 326 326 326 326 326 327 326 327 329 329 327 326 327 327 328 328 328 328 328 328 328 328 328 328 328 328 328 327 327 327 328
333 331 330 331 330 330 330 330 329 329 328 328 327 327 327 327 326 326 325 325 325 324 324 323 323 323 323 323 323 322 322 322 321 321 320 320 319 320 320 320 320 320 319 319 319 319 320 320 319 320 321 322 323 325 326 324 325 326 327 327 327 326 328 329 328 327 327 328 328 328 328 329 329 328 328 329 329 328 328 328 328 327 327 327 327
332 331 331 330 329 329 329 328 328 328 327 326 326 326 326 325 324 323 323 323 323 322 323 323 323 322 322 321 320 320 320 320 319 319 319 319 318 319 318 318 318 318 317 317 318 318 318 317 317 318 320 321 322 323 324 324 325 326 326 326 327 327 328 329 328 328 328 328 328 328 328 329 329 329 329 328 328 328 328 328 328 327 327 327 327
330 330 329 328 328 327 327 327 327 327 326 325 325 325 324 323 322 322 322 322 322 322 322 322 321 321 320 319 319 318 318 318 318 318 317 317 317 317 316 316 316 316 316 317 317 317 316 316 316 318 320 322 322 323 323 324 325 326 325 326 326 327 328 328 328 328 328 328 328 328 328 328 329 329 329 328 328 328 328 328 328 328 327 326 326
328 328 327 327 327 326 326 325 324 324 323 323 323 323 322 322 321 321 321 321 321 322 321 321 320 319 319 319 317 317 317 317 317 316 315 315 315 314 314 315 315 315 315 315 315 315 315 316 317 318 321 323 323 324 324 325 325 325 325 326 326 327 327 328 328 328 328 328 328 328 328 328 328 329 328 328 328 328 327 328 327 327 327 327 326
326 326 327 327 326 326 325 323 322 321 321 322 322 322 321 321 320 320 320 320 321 321 320 319 318 317 317 317 316 315 315 315 315 314 313 313 313 313 313 313 313 313 314 314 314 314 314 315 317 319 321 322 323 324 325 325 326 326 326 326 326 326 327 327 327 327 328 328 328 328 328 328 328 328 328 328 328 328 327 327 327 327 327 327 326
325 325 325 324 324 324 323 322 321 320 320 321 321 321 320 320 320 319 319 319 320 320 319 318 317 316 316 315 314 314 313 313 313 312 312 312 312 312 311 311 311 312 313 313 313 313 313 313 315 317 319 321 322 324 324 325 325 326 326 325 325 325 326 326 327 327 327 327 327 327 327 327 328 328 328 328 327 328 328 327 327 327 327 327 326
324 324 323 322 322 322 322 321 319 318 319 320 320 320 320 319 319 319 319 319 319 319 318 317 316 315 314 314 313 312 312 312 311 311 312 311 311 310 310 310 310 311 311 310 310 311 311 313 314 316 318 320 322 322 323 324 324 324 324 324 324 324 325 325 325 325 325 325 326 326 326 326 327 327 328 327 327 328 328 328 327 327 327 327 327
324 323 323 322 321 321 320 320 319 318 318 319 319 319 319 319 319 319 319 319 318 318 317 316 315 314 314 313 312 311 311 311 311 311 311 310 309 309 309 309 309 309 309 309 309 310 312 313 314 316 317 318 320 321 321 322 322 322 322 323 323 323 324 323 323 323 323 323 323 324 324 325 325 326 327 327 327 327 327 328 328 327 327 327 326
324 323 322 322 320 319 319 319 319 319 318 318 318 318 318 319 318 319 319 318 317 317 316 315 315 314 313 312 311 311 310 310 311 310 310 309 309 308 308 308 308 308 308 308 309 310 311 312 313 314 316 317 317 317 318 320 320 320 321 321 321 322 322 322 321 321 321 320 321 322 321 322 323 325 326 326 326 326 326 326 327 327 326 326 326
323 322 322 320 319 318 319 319 319 318 318 317 316 317 317 318 318 318 318 317 317 316 315 315 314 313 312 311 311 310 310 310 310 310 309 309 308 308 308 308 308 307 307 307 308 309 310 310 311 313 314 314 314 313 314 317 318 317 318 318 318 318 319 319 319 319 317 316 317 318 318 319 321 323 325 325 325 325 325 325 325 326 326 326 326
322 322 320 319 318 319 319 319 318 318 317 316 316 316 316 316 316 317 316 316 316 315 314 314 313 312 312 311 310 309 309 309 309 309 308 308 307 307 308 308 308 307 307 307 308 309 309 309 310 310 310 309 310 310 313 315 316 316 316 316 315 315 315 315 314 315 315 314 315 316 316 317 318 320 322 323 323 323 323 322 322 323 324 325 325
322 321 319 318 318 319 319 319 318 317 316 315 315 315 316 316 315 316 316 315 315 315 314 313 312 312 311 310 309 309 309 308 308 308 307 307 307 308 309 309 309 309 309 309 308 308 308 307 307 306 305 306 307 309 312 314 315 316 315 314 313 312 312 311 310 311 311 312 313 313 313 314 315 316 317 317 318 318 319 319 319 320 321 322 322
321 319 318 318 317 318 319 318 317 316 315 315 315 315 315 315 315 315 315 314 314 314 313 312 312 311 310 310 309 309 308 307 307 307 307 307 308 309 310 311 310 309 309 308 307 307 306 305 305 304 304 304 306 308 311 313 314 314 313 312 310 310 310 309 308 308 309 310 311 311 311 311 312 313 314 314 314 315 315 316 316 317 317 318 318
321 319 318 318 318 318 318 317 316 315 315 315 315 314 314 314 314 314 314 313 313 313 312 312 311 310 310 309 309 308 307 307 306 306 306 307 309 309 309 310 309 307 306 305 304 305 305 304 303 303 303 304 305 307 310 311 312 312 311 309 309 308 307 307 306 307 307 308 309 309 309 309 310 311 312 312 313 313 313 313 314 315 315 315 316
319 318 318 318 319 318 316 316 315 314 314 314 315 314 314 313 313 313 313 313 312 312 312 311 311 310 310 309 308 307 306 306 306 306 306 306 306 306 307 309 307 304 304 304 304 304 303 303 303 303 303 304 305 307 308 309 309 310 309 308 307 307 306 305 305 305 306 306 307 307 307 307 308 309 309 310 310 310 310 310 310 310 310 311 313
318 317 317 318 318 317 316 315 314 313 313 314 314 313 313 313 312 312 312 312 311 311 311 311 310 309 309 308 308 307 306 305 305 305 304 303 304 304 306 307 305 302 303 303 303 303 303 303 303 303 304 305 306 307 308 308 308 308 308 307 306 306 305 304 304 304 305 305 306 306 306 306 306 307 307 308 309 308 308 307 307 306 306 307 307
318 317 317 318 317 316 315 314 313 312 313 313 312 312 312 312 312 311 311 311 310 310 310 310 309 308 308 307 307 306 305 304 304 303 303 302 303 303 304 304 303 302 303 302 301 302 302 302 303 303 303 303 305 307 307 308 308 307 308 307 305 304 304 304 303 303 303 304 304 305 306 306 306 306 306 307 307 307 307 306 306 306 305 305 305
316 315 316 316 315 314 313 312 312 312 311 312 311 311 311 311 311 310 309 310 309 309 309 309 308 308 307 307 306 305 304 304 303 303 302 302 302 302 302 303 303 302 302 301 300 301 302 302 303 303 302 301 303 306 307 309 309 308 308 306 304 304 304 303 303 302 302 303 304 304 305 306 306 306 307 307 306 306 306 305 305 305 305 304 304
315 315 315 314 313 312 311 311 311 311 310 311 311 311 310 310 310 309 309 309 308 308 308 308 307 306 306 306 305 304 304 303 302 302 302 301 301 301 302 303 303 302 301 301 301 301 301 301 302 302 301 301 302 304 307 308 309 308 307 305 304 304 303 303 302 302 302 302 303 304 304 304 305 306 307 307 306 306 305 305 305 304 304 303 303
314 314 313 312 311 311 310 310 310 309 309 310 310 310 309 309 309 308 308 308 307 307 307 306 306 306 305 305 304 303 302 302 301 301 301 301 301 301 301 303 302 301 300 300 300 300 300 300 300 301 301 301 301 303 306 308 308 308 305 304 304 303 302 302 302 301 301 301 302 302 303 303 303 304 305 306 306 305 304 304 304 304 303 303 302
314 313 312 311 310 309 309 309 309 309 309 309 309 309 308 308 307 307 307 306 306 306 306 305 305 305 304 304 304 303 302 301 301 301 301 301 301 301 301 302 301 300 300 299 299 299 299 299 299 300 300 300 299 301 304 306 307 307 305 303 302 302 302 301 300 300 300 300 300 300 301 301 302 303 303 303 304 304 303 302 303 303 303 302 301
312 311 310 309 309 308 308 308 308 308 308 308 308 308 307 306 306 305 305 305 305 305 305 304 304 304 303 303 303 302 301 301 301 302 302 301 301 301 301 301 300 300 299 299 298 298 298 298 298 298 298 298 298 299 301 303 304 305 305 303 302 301 300 300 299 299 299 298 298 299 300 300 301 301 302 302 302 302 301 301 301 301 301 301 301
310 309 309 308 307 306 306 306 306 306 307 307 308 307 305 306 305 304 304 304 304 304 304 304 304 303 302 302 301 301 300 300 300 301 301 300 300 301 300 300 299 299 299 298 298 298 298 298 297 297 297 297 298 298 299 300 301 302 303 303 301 299 299 299 299 298 298 297 297 297 299 300 301 301 301 301 301 301 301 300 300 300 300 300 301
308 308 307 307 306 305 305 304 304 305 306 306 306 305 305 305 304 303 303 304 304 304 303 303 303 302 301 300 300 300 300 300 300 300 300 300 300 300 300 299 299 299 298 298 298 298 298 298 297 297 297 296 296 297 298 298 299 299 300 300 300 299 298 298 297 297 296 296 296 297 298 300 300 300 300 301 300 300 300 300 300 300 300 300 300
308 306 307 307 306 304 304 303 303 304 305 305 305 305 304 303 302 302 303 303 303 303 303 303 302 301 300 300 299 299 299 299 300 300 300 300 299 299 299 298 298 298 298 298 298 298 298 298 298 297 297 296 296 296 297 297 297 297 297 298 298 298 298 297 296 296 296 296 295 296 297 299 299 300 300 300 300 300 299 299 300 299 299 300 300
307 306 306 306 305 304 303 303 303 303 304 304 304 304 303 302 301 302 303 303 303 303 302 302 301 300 299 299 299 299 299 299 300 300 299 299 299 298 298 298 298 298 298 298 298 298 298 298 298 297 297 296 296 296 296 296 296 296 296 296 296 296 297 296 296 295 295 295 296 296 296 296 297 297 298 298 298 298 298 298 298 298 298 299 300
306 305 305 304 303 303 303 302 302 302 303 303 303 303 302 301 301 302 303 303 303 303 302 301 300 299 299 299 299 299 299 299 299 299 298 298 297 297 297 297 298 298 298 298 298 298 298 298 298 297 297 296 296 296 296 296 296 296 296 296 296 296 296 296 296 295 295 296 296 296 296 296 296 296 296 297 297 297 297 297 297 297 297 298 298
306 305 304 303 303 302 302 301 301 301 302 302 302 302 302 302 302 302 303 303 303 302 301 300 299 299 299 299 299 299 298 298 298 297 297 296 296 296 297 297 298 298 298 298 297 298 298 297 297 297 297 296 296 295 295 295 295 295 295 295 295 295 295 295 295 295 295 295 295 295 295 296 296 296 296 296 296 296 296 296 296 296 296 297 297
305 304 303 303 302 302 301 301 301 300 301 302 302 302 302 302 302 302 303 303 302 302 300 299 298 299 299 298 298 298 297 296 296 296 296 296 296 296 296 296 297 297 298 298 297 297 297 297 297 297 296 296 295 294 293 293 293 294 293 293 293 293 293 293 294 294 294 294 294 294 295 295 295 295 295 296 296 296 296 295 295 296 296 296 296
305 304 303 302 302 301 301 300 300 300 300 301 301 301 301 302 302 302 303 303 302 300 299 298 298 298 298 297 297 296 296 296 296 296 296 296 296 296 295 295 295 296 296 297 296 296 296 296 296 296 296 296 295 294 293 292 292 292 292 292 292 292 292 292 292 292 292 293 293 294 295 295 295 295 295 295 295 295 295 295 295 295 295 296 296
304 304 303 302 301 301 301 300 299 299 299 299 299 300 300 301 301 302 303 303 301 299 298 298 298 298 297 297 296 296 296 296 296 296 296 296 295 295 295 295 295 295 295 295 295 295 295 294 295 295 295 295 295 294 293 291 290 291 291 291 291 291 291 291 291 291 291 292 294 294 294 294 295 294 294 294 294 294 294 295 295 295 295 296 296
304 304 303 301 301 300 300 299 299 299 299 299 299 299 300 300 301 302 303 302 301 299 298 298 297 297 297 297 296 296 297 297 297 297 296 296 296 295 295 295 295 295 295 294 294 294 294 294 294 294 294 294 294 293 291 290 289 289 290 290 290 290 290 290 290 290 291 293 294 294 294 294 294 294 294 293 293 293 293 293 294 294 294 295 296
Wind_Speed
12 16 16 16 16 16 15 14 15 17 17 17 17 17 16 15 13 13 15 15 14 13 12 11 9 7 6 4 3 2 2 1 2 2 2 2 2 2 2 2 3 4 4 5 5 5 5 5 4 4 4 4 5 5 5 6 6 6 7 8 8 8 9 9 9 9 8 8 9 11 13 15 16 17 18 17 17 21 23 21 18 16 16 19 19
11 13 15 17 16 16 15 14 16 18 17 18 17 17 16 14 13 13 14 14 14 13 11 10 9 7 6 5 3 2 2 2 2 1 0 1 1 1 1 2 3 4 4 5 5 6 6 5 5 5 5 5 5 6 6 7 7 6 7 8 7 8 10 9 8 8 6 7 8 8 9 13 15 17 18 17 17 21 22 20 18 17 16 16 16
11 13 14 16 16 17 16 14 16 17 17 18 17 16 16 14 12 13 13 13 12 11 10 9 8 7 7 6 5 4 3 2 2 1 1 1 1 1 0 1 2 3 3 4 5 6 6 6 6 5 6 6 6 7 7 8 8 8 8 8 8 8 10 10 10 10 7 6 6 6 6 7 9 13 17 20 18 18 20 19 18 17 16 16 16
13 12 13 15 18 18 16 15 17 17 16 17 16 16 16 14 12 12 12 12 11 10 9 9 10 9 7 7 6 4 3 2 1 2 2 1 0 1 1 1 2 2 2 3 3 4 5 6 5 5 6 6 7 8 8 9 8 8 9 9 9 10 10 9 10 11 9 7 5 4 4 5 6 6 11 16 18 18 19 20 19 18 16 16 17
13 13 13 13 16 17 16 16 17 17 16 16 16 16 15 13 12 11 11 10 10 10 10 10 12 12 9 7 5 3 3 3 3 4 3 1 0 1 1 2 3 2 2 3 3 3 3 4 4 4 5 5 7 8 9 10 10 10 11 11 11 11 12 11 10 11 12 12 10 7 4 4 5 4 5 9 13 16 19 20 20 20 18 18 18
12 12 12 12 15 16 13 13 15 16 16 15 16 16 15 13 12 11 10 10 11 11 11 11 12 13 11 8 6 5 5 5 5 4 3 2 1 1 2 3 3 3 3 3 3 3 3 3 3 4 4 4 5 7 8 9 10 11 12 12 13 12 13 13 13 12 13 16 17 15 12 9 7 4 4 4 6 11 16 18 21 22 22 22 20
11 12 12 12 12 11 11 9 12 15 16 16 16 16 15 14 11 10 10 11 11 11 11 11 11 12 10 8 8 7 5 5 5 4 3 2 2 2 2 3 3 4 4 3 3 3 3 3 3 3 3 3 4 5 7 8 9 10 11 12 13 13 13 14 14 13 13 15 18 19 20 19 17 11 7 6 5 7 11 15 20 22 23 24 23
12 13 12 9 14 17 15 15 14 14 16 16 16 15 15 13 10 9 9 10 11 11 10 9 9 10 9 8 8 6 4 4 4 4 3 2 1 2 3 4 5 5 5 4 4 4 4 4 4 3 3 4 5 6 7 7 8 9 10 11 11 13 13 15 16 15 14 15 17 18 19 21 22 19 15 12 7 6 7 10 15 19 22 24 25
14 12 10 12 17 21 22 19 14 15 17 16 16 15 14 13 11 9 8 9 10 10 9 8 8 9 9 9 7 5 4 4 4 3 2 2 1 2 4 6 7 7 7 7 5 5 5 4 4 4 4 5 6 6 8 8 9 10 10 11 12 13 14 15 16 17 18 17 17 18 18 18 19 20 20 16 11 9 8 5 7 12 16 22 26
11 8 10 13 15 17 18 17 16 14 14 16 16 16 15 14 12 11 9 9 10 10 9 8 8 8 8 8 6 5 5 4 3 2 2 2 2 3 5 6 8 8 8 8 6 5 6 5 5 5 6 6 6 7 8 9 10 11 11 12 13 14 16 17 17 17 19 20 20 20 18 16 15 15 16 16 13 11 9 6 6 8 10 16 24
7 8 8 10 12 13 16 19 18 14 11 14 17 17 17 15 13 13 11 11 11 10 9 8 8 7 7 6 5 5 5 5 4 4 3 3 3 4 5 6 7 7 6 6 5 5 6 6 6 6 6 7 7 8 9 10 11 11 12 13 13 14 15 16 17 18 19 20 22 23 21 20 17 15 14 16 13 10 9 8 9 12 12 14 20
10 8 7 11 12 9 13 17 18 18 16 17 19 20 18 17 16 16 14 13 11 9 9 8 8 7 5 5 5 6 6 6 5 5 4 4 4 6 7 7 7 7 6 6 6 7 7 6 7 7 8 8 8 9 9 10 11 11 12 13 13 13 14 15 17 18 19 20 20 20 22 23 21 18 17 16 15 14 12 8 9 12 12 14 18
11 11 10 11 9 6 12 16 17 17 12 10 16 19 17 17 20 21 17 13 10 8 8 7 7 7 6 6 7 7 7 6 6 5 4 5 6 8 10 9 8 9 9 9 9 9 9 8 9 9 9 9 9 9 10 10 10 11 11 12 12 13 14 16 19 19 19 20 20 20 21 23 22 20 20 18 16 16 14 10 10 11 9 11 15
12 13 13 13 12 13 16 16 14 16 13 8 7 12 16 20 23 24 20 15 12 9 8 7 8 8 8 8 8 7 6 5 5 5 5 6 7 9 9 9 9 10 10 10 10 10 10 10 11 10 9 9 9 9 9 9 10 11 11 12 13 14 16 17 19 20 20 20 20 20 20 21 21 20 19 20 18 17 15 11 9 9 10 12 13
13 14 14 13 15 17 19 17 18 19 18 15 11 7 12 21 24 22 20 16 14 12 10 10 10 9 9 8 8 6 5 5 5 5 5 6 7 8 8 8 9 9 9 10 12 13 13 12 12 12 10 9 9 9 9 10 11 12 12 13 13 14 15 17 19 19 18 18 19 18 18 19 20 20 20 21 21 20 21 18 12 7 7 9 9
13 13 14 14 15 18 20 20 22 23 23 24 21 12 9 16 19 19 19 17 16 15 13 11 9 9 8 7 7 6 5 5 5 5 5 6 7 7 8 8 9 9 11 12 14 14 13 13 13 12 12 11 11 10 11 11 12 13 13 13 14 14 15 16 18 18 17 17 18 17 17 18 18 19 20 21 21 21 23 24 21 13 8 6 6
14 13 13 10 10 14 18 19 21 22 21 21 23 21 17 16 17 19 20 19 17 15 13 11 9 8 7 6 6 5 5 5 5 5 5 6 6 7 8 8 9 11 12 13 13 12 13 13 13 12 12 12 12 12 12 11 12 13 13 14 15 15 15 16 16 17 17 17 18 17 17 17 17 17 19 20 20 21 23 25 25 23 17 9 6
13 15 15 11 11 14 16 16 17 18 19 19 19 22 23 21 18 18 20 20 18 16 13 10 8 6 6 5 5 5 5 5 5 5 6 7 7 8 8 9 10 11 11 12 12 12 12 12 12 11 11 11 12 12 12 11 12 13 14 14 15 16 15 14 14 16 16 16 16 16 16 16 17 17 18 19 19 20 22 23 24 25 24 17 9
11 13 15 14 15 17 17 18 19 18 18 18 17 17 20 20 19 18 18 19 18 15 12 9 6 4 4 5 5 5 5 5 6 6 7 8 8 8 8 9 9 9 10 11 12 12 11 11 11 11 12 11 11 11 11 11 13 14 15 15 14 16 15 12 12 13 14 14 14 15 15 15 15 16 16 17 19 19 21 22 22 22 25 25 19
13 15 16 15 16 20 21 20 21 20 18 18 20 20 20 19 18 18 18 17 15 13 10 7 5 4 4 5 5 6 6 7 7 7 8 9 8 7 8 9 8 8 9 10 11 11 11 11 10 11 12 12 13 12 11 11 13 13 14 14 13 15 15 13 12 12 12 13 14 14 15 14 14 14 15 16 17 18 18 20 21 22 24 26 25
15 18 18 15 16 18 19 19 20 20 20 22 24 24 22 20 18 17 16 14 13 10 8 7 7 6 7 7 7 7 7 7 8 8 8 8 8 7 8 8 8 8 9 9 10 10 10 10 11 11 13 12 12 12 12 11 12 12 13 13 13 13 13 13 13 13 13 13 13 14 14 13 13 13 14 15 16 15 16 18 19 20 22 23 24
11 16 17 16 18 19 17 18 20 20 20 22 24 24 22 20 19 16 14 13 11 9 9 9 10 10 9 9 8 8 8 8 8 8 8 8 7 7 8 8 8 8 8 9 10 10 9 10 11 11 12 13 12 11 11 11 12 12 12 12 12 12 11 11 12 12 13 12 12 13 13 13 11 12 13 14 14 14 14 15 18 19 20 22 23
10 14 14 14 19 22 20 19 20 19 20 22 23 23 22 22 20 17 16 14 11 10 10 11 11 10 9 8 8 9 9 9 8 8 8 8 7 7 7 7 7 6 7 8 9 9 9 10 10 11 12 13 12 10 9 11 12 11 12 12 12 12 11 10 10 10 11 11 10 11 11 11 10 10 11 12 13 13 13 14 16 19 19 20 23
13 13 12 12 18 23 20 18 20 23 24 24 23 22 22 22 21 19 18 15 13 12 13 13 12 11 9 8 8 9 9 9 8 8 8 8 8 7 6 6 6 6 7 8 8 8 9 10 11 12 13 13 13 12 9 10 12 12 12 12 12 11 11 10 9 10 10 10 9 9 10 10 10 10 10 11 11 12 13 14 15 17 18 19 21
15 14 13 13 16 20 20 17 18 22 25 25 24 23 22 22 21 19 17 14 13 14 13 12 12 11 10 9 9 9 9 9 8 8 9 8 8 7 6 6 6 7 8 8 8 8 9 11 13 14 16 17 17 16 14 12 12 12 12 12 12 12 11 10 10 10 11 11 10 10 10 11 11 10 10 9 10 11 12 14 15 16 17 17 18
17 16 14 12 11 14 19 18 16 21 24 24 24 23 22 21 20 18 16 14 13 13 12 11 10 11 11 10 9 8 8 8 9 9 8 8 7 7 6 6 7 7 8 9 10 10 11 13 15 17 18 20 20 19 17 15 14 12 12 11 11 11 11 11 11 12 12 12 12 11 11 11 11 11 10 9 9 9 11 13 15 16 16 15 16
17 16 15 14 12 12 15 16 16 19 23 24 23 22 21 21 18 17 16 15 14 14 13 12 11 11 11 10 8 8 8 8 9 8 8 7 7 7 6 6 7 8 9 11 13 14 15 17 18 19 20 20 19 18 16 15 14 13 12 12 11 10 11 12 12 13 14 14 13 13 13 13 12 11 10 9 9 9 10 10 12 13 14 15 15
17 17 17 17 16 13 14 16 17 18 21 22 21 21 21 21 18 17 16 14 12 12 12 12 12 12 11 8 7 8 8 9 9 9 8 7 8 8 8 8 9 10 11 13 16 17 19 20 21 21 21 20 20 19 18 16 14 13 13 13 13 13 13 13 14 14 14 16 15 14 14 15 14 12 11 10 9 9 10 10 10 11 13 15 15
17 18 18 18 17 15 17 19 19 18 18 18 18 20 21 21 19 17 17 14 11 11 12 12 13 12 9 7 8 8 9 9 10 9 9 9 9 9 9 10 11 12 13 15 17 19 20 21 21 22 22 22 22 23 20 16 14 14 15 15 16 16 16 16 17 17 16 16 17 16 16 17 15 11 9 8 8 8 9 9 9 9 10 13 15
18 17 16 16 16 16 18 20 20 19 19 19 20 21 21 20 18 16 16 15 12 11 12 12 12 10 9 9 9 9 9 10 10 10 9 9 10 11 13 13 13 14 15 17 19 21 21 20 20 22 23 24 25 23 19 16 15 16 17 18 19 19 19 19 18 19 19 19 19 18 18 19 18 15 12 10 8 6 5 5 6 6 6 9 11
18 17 16 16 16 17 19 20 20 19 21 22 22 21 20 21 19 17 15 13 12 12 12 12 11 10 10 10 9 8 9 9 10 11 10 11 13 17 20 20 19 19 20 20 20 21 21 19 19 20 22 25 26 22 19 18 17 18 20 21 22 22 22 22 20 19 19 19 20 19 19 21 21 20 19 17 15 14 12 9 7 6 5 3 4
17 17 18 18 16 16 16 18 19 19 20 21 22 22 21 21 20 18 16 13 12 12 12 12 12 11 11 11 10 9 9 9 11 12 12 16 20 23 24 24 23 22 22 20 18 18 18 18 18 20 22 24 25 23 22 21 20 21 22 23 24 24 24 24 22 20 20 19 20 20 21 22 21 20 20 21 21 21 20 18 16 13 12 10 7
14 16 17 15 14 15 17 17 18 18 19 22 25 24 22 21 20 18 16 13 11 11 13 13 12 12 12 11 10 9 10 10 11 12 15 20 24 24 25 26 24 20 19 18 16 16 17 16 18 20 22 24 25 25 25 24 23 24 25 24 23 24 24 24 23 22 22 22 22 23 24 24 22 19 19 20 21 23 24 25 24 22 21 19 15
13 14 13 12 12 15 17 17 18 19 21 24 25 24 23 22 19 17 15 12 11 12 13 13 12 12 12 11 11 10 10 10 12 16 20 22 23 24 25 25 23 19 16 17 17 17 17 17 17 19 21 25 26 25 26 26 26 27 27 23 21 21 22 23 23 22 22 23 24 23 23 25 25 23 21 18 18 20 24 27 30 32 32 30 26
13 12 9 10 15 18 18 18 17 19 23 25 24 23 22 20 17 17 16 12 11 12 13 13 12 12 11 11 11 11 10 11 15 20 21 21 23 25 26 26 23 18 16 18 18 18 18 17 17 18 22 26 25 24 26 28 27 28 26 22 19 20 21 22 23 23 23 22 21 21 23 26 28 28 25 21 18 19 22 24 27 30 33 36 37
14 14 11 12 17 20 19 19 18 18 21 23 23 22 22 19 17 17 15 12 11 12 12 13 12 11 11 11 12 11 11 13 18 21 21 21 24 24 25 27 26 23 22 21 18 20 23 22 20 21 21 22 23 24 26 28 28 28 28 26 22 20 22 23 23 25 26 25 24 25 28 30 30 29 28 27 25 25 25 25 25 24 27 33 37
13 16 17 17 19 19 19 19 21 21 21 22 23 22 21 19 16 15 14 13 12 12 12 12 12 12 12 11 11 11 11 14 18 19 18 20 22 23 23 25 27 28 28 25 21 23 27 28 27 26 22 20 22 24 25 27 28 29 32 32 27 23 22 24 25 26 30 33 33 32 33 33 31 29 29 29 29 28 26 26 24 23 27 31 33
16 18 19 17 17 17 18 22 25 23 21 23 23 22 20 18 15 15 15 14 12 11 11 12 12 12 12 11 11 11 11 13 14 13 15 18 21 24 24 26 28 28 27 26 26 27 29 30 30 30 26 24 24 23 23 26 28 29 31 32 30 30 27 25 27 31 33 35 36 34 34 34 32 30 29 29 30 27 25 23 22 23 27 29 29
19 21 21 18 17 18 20 24 25 22 20 21 21 20 19 17 15 15 14 13 11 11 12 13 12 12 12 11 12 11 12 14 14 14 18 21 23 24 25 27 29 28 26 26 27 27 28 29 30 30 30 28 27 24 23 24 25 28 29 26 26 29 28 24 26 30 33 35 35 34 33 33 32 31 30 31 32 29 25 22 20 22 25 25 26
21 21 21 20 21 23 23 24 23 21 20 20 19 19 18 17 16 14 13 12 11 11 12 13 13 12 12 11 13 12 12 15 18 20 22 24 24 25 26 27 28 28 27 27 27 28 28 29 29 30 30 30 29 27 24 24 24 27 29 27 24 23 23 22 24 25 27 32 34 34 33 31 31 32 31 31 32 31 27 23 21 22 23 21 22
24 24 23 23 24 26 25 22 21 21 20 19 20 19 17 17 16 14 12 12 11 13 15 15 16 16 13 14 16 14 14 18 21 23 24 25 25 26 27 27 26 27 28 28 27 28 29 28 28 29 29 29 29 28 26 26 26 27 28 30 28 22 18 20 24 25 25 28 31 33 33 30 30 31 31 31 32 32 32 30 28 27 26 23 22
23 25 27 27 24 23 22 18 17 20 20 20 21 21 17 17 16 13 12 12 13 17 19 20 20 18 15 16 17 15 16 21 23 23 24 25 25 26 27 26 26 27 29 27 25 24 24 24 26 27 27 28 28 28 28 27 27 27 28 30 31 27 23 23 25 25 24 25 29 32 33 31 30 31 31 32 33 33 34 34 32 31 32 31 29
22 23 27 29 23 18 17 16 16 19 20 19 20 20 17 16 14 12 13 15 18 20 22 21 21 20 18 18 18 17 19 23 24 24 25 24 24 25 26 26 25 25 26 24 21 20 20 20 21 22 24 25 26 27 28 27 27 28 28 29 31 30 30 31 30 25 24 26 29 32 33 33 33 34 34 34 34 35 35 35 34 33 34 33 32
22 23 27 29 24 18 16 16 18 20 18 16 18 19 17 16 15 15 18 20 21 22 23 23 22 22 20 20 20 20 22 24 23 24 25 24 24 25 25 25 24 22 21 20 17 17 17 18 18 18 19 21 23 25 26 27 27 27 28 29 30 31 32 34 33 30 29 30 31 31 31 32 33 35 35 36 36 36 35 35 34 35 35 33 29
25 26 28 27 24 20 18 17 18 19 17 15 17 20 19 17 17 19 22 22 22 23 24 23 23 23 22 22 22 22 23 23 23 23 23 23 24 24 23 22 22 20 18 18 16 16 16 17 16 16 17 18 19 22 24 25 26 27 28 28 29 30 31 32 33 33 32 32 31 30 31 32 33 34 35 35 36 35 35 34 34 35 35 33 29
22 21 23 24 22 20 20 19 18 18 18 16 17 19 20 19 20 22 22 22 23 24 24 24 23 23 23 23 23 23 23 23 23 24 24 24 24 24 22 20 19 19 18 17 16 16 16 16 16 16 16 16 18 19 20 22 23 24 25 26 27 28 29 30 31 31 30 30 30 31 32 32 33 34 35 35 34 33 34 34 34 34 34 33 30
23 22 23 23 21 19 20 20 18 18 19 19 18 20 21 21 22 23 23 23 24 24 24 24 24 24 23 24 24 24 24 24 24 24 25 25 25 25 23 20 17 17 17 16 16 15 16 16 16 16 16 17 18 18 19 19 20 20 22 23 25 26 26 27 27 27 28 29 29 30 31 32 33 33 33 33 33 33 34 33 32 32 32 32 31
26 27 25 21 19 19 19 19 18 18 20 21 21 22 22 22 22 22 23 23 24 25 25 25 25 25 25 25 25 25 26 26 26 25 25 26 26 26 26 23 19 17 16 16 16 17 17 16 15 15 15 16 18 19 20 20 19 19 20 21 23 25 25 25 26 26 27 28 28 29 30 30 31 31 29 27 28 30 31 31 31 30 30 30 31
24 24 23 21 20 20 21 20 19 19 21 22 23 23 23 22 22 22 22 23 24 25 25 25 25 25 26 26 26 27 28 29 29 29 28 27 26 26 26 25 23 21 19 18 18 19 20 19 17 16 15 15 17 19 19 18 18 18 18 20 22 23 24 25 26 26 28 29 29 29 29 27 28 28 28 26 26 26 27 29 30 29 29 30 30
22 21 22 24 25 25 26 24 21 20 22 23 23 23 22 22 23 24 23 24 26 26 24 23 23 23 25 26 27 27 28 29 29 30 29 28 27 26 26 25 24 23 22 21 21 21 21 21 22 20 18 17 17 17 16 16 17 17 17 19 21 21 22 24 24 26 28 28 27 26 25 24 23 25 26 26 25 26 26 26 27 28 28 29 30
20 21 21 23 27 28 27 24 21 21 23 22 22 22 22 22 22 23 24 26 28 26 22 20 21 22 25 27 28 28 28 27 26 25 25 25 24 24 24 23 22 22 21 21 21 20 19 19 20 21 20 18 16 15 15 17 18 18 18 19 20 21 22 23 24 28 29 26 21 20 20 20 20 22 24 24 24 25 25 24 24 26 27 27 28
Wind_Direction
165 166 176 188 192 190 183 176 176 176 176 174 175 178 178 176 172 171 180 181 176 169 159 157 155 151 151 159 181 185 182 186 187 203 230 279 295 308 317 330 314 306 311 309 310 304 297 292 286 280 277 283 283 278 277 278 279 281 283 284 281 278 280 278 277 279 276 268 261 254 254 253 249 246 244 243 244 245 245 243 240 238 234 230 227
156 164 174 183 187 187 183 177 178 177 177 178 177 180 180 178 174 168 172 176 175 171 163 162 160 154 154 160 172 155 146 145 156 180 258 328 309 305 296 300 296 298 301 297 294 291 287 283 277 273 271 273 275 272 269 271 271 270 273 276 278 277 277 274 270 271 263 261 265 260 258 255 247 243 244 242 241 244 243 240 237 232 230 228 225
170 175 171 172 176 179 181 178 180 178 176 179 178 180 183 181 175 169 170 172 171 170 168 163 156 154 155 153 154 151 151 155 157 163 139 109 56 24 314 285 290 295 292 285 286 286 286 280 274 273 266 264 267 267 267 266 265 264 265 265 268 270 270 266 262 264 260 256 262 260 261 263 247 236 241 243 240 240 240 237 235 231 230 229 226
181 179 167 168 170 172 177 176 179 178 174 178 179 180 184 181 173 167 170 173 171 166 161 153 146 146 148 147 150 159 161 161 173 180 185 177 82 15 13 18 354 336 320 310 307 301 293 280 275 273 265 264 267 268 268 266 264 265 264 262 261 262 261 254 248 254 253 244 245 248 252 267 261 236 238 244 241 239 239 236 235 233 231 228 225
185 178 167 164 163 169 178 173 171 174 174 176 178 181 181 177 175 172 171 173 170 162 154 148 145 145 149 152 157 173 175 179 203 206 207 202 107 73 45 31 22 18 16 5 346 321 291 273 275 273 268 269 268 267 268 268 267 264 264 265 262 261 264 260 251 247 243 241 247 250 250 261 268 261 251 246 236 236 238 235 234 234 233 228 224
191 180 166 160 164 168 165 159 165 169 172 176 178 182 182 177 179 176 172 171 166 159 154 151 148 152 162 168 170 184 191 195 204 206 204 185 103 88 48 27 29 28 21 12 356 334 300 278 281 279 278 271 259 260 262 263 266 265 264 267 265 266 269 269 266 256 247 249 250 247 249 260 274 281 271 259 234 230 235 235 234 235 235 233 229
186 175 168 162 152 128 108 140 173 170 170 178 178 182 186 181 177 173 169 169 164 158 156 154 154 161 173 179 183 195 199 194 188 176 164 145 92 71 39 32 36 29 24 16 359 347 336 332 319 300 300 294 273 265 262 263 267 266 267 269 269 269 266 265 266 260 252 253 250 246 248 251 253 256 258 268 264 233 227 232 236 235 234 235 234
179 176 167 130 114 117 137 174 185 164 160 171 175 181 187 182 175 171 170 166 162 159 159 160 162 167 178 184 189 194 187 169 157 145 138 126 84 70 58 51 41 29 23 12 353 343 345 347 336 319 315 311 302 292 284 284 283 278 277 277 275 272 265 263 263 260 255 251 244 243 247 247 246 246 248 253 264 264 240 230 235 236 233 235 235
188 179 145 128 140 151 161 170 165 155 158 164 172 184 189 185 177 169 167 162 157 159 160 162 165 170 178 181 179 170 153 138 132 136 140 129 100 77 62 44 27 14 5 357 345 340 341 337 326 313 306 303 300 297 293 290 288 282 278 277 276 273 267 264 264 263 260 254 243 240 240 239 239 242 244 240 238 254 260 238 228 233 234 234 234
184 151 135 148 155 150 142 137 136 144 159 170 179 190 190 184 177 166 161 157 153 157 158 160 167 172 173 169 161 153 144 137 134 139 141 118 90 67 45 25 14 4 357 352 344 339 335 326 319 307 299 298 292 292 293 290 287 282 277 274 271 270 267 265 264 264 264 260 254 250 242 235 236 241 241 232 228 238 248 248 228 219 227 232 233
128 113 137 131 116 121 126 126 131 139 164 185 185 187 183 175 169 160 153 151 149 154 158 156 155 152 151 151 152 154 149 146 138 123 106 83 59 40 26 14 7 359 355 351 342 337 331 320 314 305 299 299 295 295 294 293 293 289 286 280 273 271 269 268 267 266 267 264 261 259 250 241 238 234 231 226 225 230 234 244 236 225 228 237 238
117 127 126 96 92 111 125 130 143 152 172 193 184 176 171 161 156 150 148 151 150 154 157 151 146 139 138 143 143 146 143 135 120 101 80 56 34 17 9 2 360 359 356 351 340 335 329 320 316 310 306 303 300 299 296 295 296 293 291 286 281 277 272 274 274 270 268 265 263 264 258 254 253 249 244 235 231 232 232 237 234 226 230 240 243
135 137 126 114 115 149 154 153 151 140 145 180 172 162 158 153 153 148 147 154 154 156 159 153 152 149 147 144 135 132 126 113 98 83 57 31 16 4 2 0 357 354 348 343 338 337 333 325 321 316 311 308 304 302 299 294 294 292 291 289 286 282 279 282 279 274 274 268 262 263 264 268 272 269 261 253 245 238 234 237 233 223 225 237 237
145 139 141 144 151 169 172 160 134 109 90 75 118 144 145 147 151 147 147 155 156 155 157 152 150 146 141 137 128 120 109 91 76 61 38 21 12 5 4 1 352 345 342 342 339 337 334 327 324 320 316 314 310 306 302 297 295 293 291 291 292 289 287 289 284 279 281 278 267 260 261 266 269 269 264 256 251 242 234 234 230 220 224 234 233
145 146 152 159 161 163 163 150 132 125 122 118 116 119 127 137 146 144 142 148 150 146 142 138 134 129 125 119 111 100 84 69 58 46 31 20 14 7 2 356 348 344 342 339 333 330 331 330 328 324 319 317 313 310 307 302 301 299 295 295 296 296 294 293 291 286 283 280 274 266 261 263 263 262 263 258 253 248 242 236 229 221 225 230 229
150 155 159 166 163 153 153 153 146 144 143 140 139 135 121 130 140 140 137 141 140 135 132 128 122 115 109 101 88 77 68 60 48 35 25 20 14 4 357 352 349 345 339 334 332 332 334 333 330 326 323 321 316 313 309 304 304 304 301 300 300 302 302 299 294 290 287 284 283 277 267 265 265 262 261 262 258 254 249 242 233 226 226 229 225
156 152 141 143 146 145 149 152 149 145 144 144 148 154 153 144 141 139 138 138 133 128 126 122 120 110 96 82 68 58 54 48 39 34 27 20 11 357 353 350 344 340 336 333 333 333 330 329 327 327 325 322 319 317 315 311 309 310 309 308 310 308 305 305 299 288 287 288 287 284 276 270 270 267 263 264 261 253 248 243 236 229 228 231 229
149 134 126 129 141 144 142 139 138 136 139 145 152 155 151 146 146 144 139 135 129 126 124 121 118 105 83 65 51 44 43 40 39 34 23 13 5 358 354 349 341 336 331 330 332 332 331 330 333 332 327 325 324 325 326 323 319 318 316 313 316 313 301 303 308 294 287 292 289 285 282 274 270 269 267 266 263 254 246 244 240 235 231 231 235
141 128 130 140 147 145 141 139 138 135 138 142 142 140 138 140 148 149 139 130 126 124 124 123 115 91 61 47 45 47 48 48 45 34 20 11 8 6 356 344 340 336 331 335 339 341 340 340 342 340 335 334 332 332 333 329 324 324 322 318 319 317 301 293 311 308 295 291 289 284 281 277 270 269 271 269 262 255 249 247 245 238 232 232 235
146 137 134 138 144 144 141 138 136 134 133 130 128 128 130 135 141 137 126 119 117 117 120 119 105 82 67 66 67 67 63 54 42 32 23 15 9 3 350 341 343 344 342 345 344 343 343 344 347 348 345 340 335 340 345 335 329 330 325 319 318 319 309 297 303 312 306 295 290 290 286 280 277 273 272 270 264 259 253 250 247 240 233 232 234
140 137 132 131 132 130 130 132 131 129 126 123 124 126 128 132 129 121 114 110 107 109 113 110 102 99 96 86 75 66 55 40 30 23 19 11 2 356 350 347 351 350 348 347 344 344 344 343 349 354 354 348 340 344 347 336 333 335 330 324 321 321 318 312 308 309 309 301 294 295 292 285 282 279 276 272 266 263 256 250 248 241 233 231 231
128 133 131 126 125 123 126 131 127 122 119 120 124 127 129 128 123 117 112 107 105 105 107 108 104 98 90 76 58 48 36 26 23 20 13 6 358 356 355 356 355 350 350 348 345 349 350 349 354 356 360 0 353 348 342 334 336 337 334 334 334 330 327 324 320 316 313 308 303 301 298 293 287 280 278 275 268 262 256 249 246 240 234 231 228
125 133 128 119 124 128 129 123 117 115 116 120 126 130 131 129 125 121 114 109 110 111 112 113 105 91 79 59 40 35 28 22 19 15 14 9 5 4 0 359 355 349 353 354 354 1 1 1 5 4 4 4 1 357 347 341 347 350 347 345 344 342 341 338 335 333 328 323 319 313 307 302 296 286 281 278 273 266 257 253 250 242 237 233 228
131 130 124 120 125 127 125 119 119 122 123 126 130 131 131 130 128 123 116 113 114 116 117 114 102 89 73 49 36 31 24 23 22 20 22 18 14 14 7 5 8 11 17 15 13 15 11 10 14 16 18 18 16 16 9 1 5 9 4 354 348 349 351 351 350 348 342 335 331 324 316 310 303 295 287 281 280 274 262 260 257 247 241 235 229
126 122 120 124 127 128 128 124 124 128 129 130 132 131 130 130 127 121 115 115 119 119 116 107 93 83 64 39 31 27 23 29 35 34 32 28 26 23 18 24 31 33 35 30 23 21 21 26 32 34 35 35 34 32 28 23 21 17 7 357 354 355 356 357 355 352 349 346 342 334 325 322 316 306 299 292 285 275 264 260 257 249 243 239 233
126 121 117 118 117 121 127 126 122 125 128 129 129 130 129 128 126 124 121 125 129 123 114 106 92 75 55 35 29 34 36 42 45 43 41 35 31 29 29 35 37 38 39 36 35 38 41 45 46 45 43 41 40 37 32 28 25 19 11 4 1 359 2 7 6 4 5 2 356 350 341 334 325 313 307 306 298 284 271 261 257 254 248 244 237
131 130 130 129 126 121 122 120 117 124 129 129 128 128 127 125 124 125 124 124 126 121 111 103 91 70 53 44 46 50 52 54 55 55 50 40 38 42 44 44 43 46 48 47 50 54 56 56 52 48 46 44 42 40 36 34 31 27 21 19 18 18 20 21 17 15 17 14 10 7 1 354 343 330 322 318 316 308 296 279 268 263 256 251 243
135 137 136 133 131 126 122 120 121 126 128 125 126 127 126 123 121 121 120 116 115 114 105 96 87 73 62 62 65 63 63 67 70 67 59 54 56 54 53 58 60 59 57 57 59 61 60 57 52 49 47 45 44 41 37 36 38 38 35 35 36 36 35 31 27 28 26 20 19 17 13 10 2 345 332 325 321 314 310 306 294 277 263 254 246
138 139 138 136 136 134 131 130 129 127 122 120 125 127 126 124 121 120 119 116 112 108 102 95 88 80 76 79 78 74 76 79 78 73 68 66 64 59 61 69 73 71 67 64 64 62 58 54 51 50 49 47 45 42 37 35 40 45 47 47 47 44 42 39 37 36 32 23 22 23 24 25 21 3 345 335 324 311 306 312 311 295 273 256 246
141 140 136 135 136 133 131 131 130 128 128 129 131 131 129 126 123 119 118 119 117 108 101 97 92 91 93 91 87 84 82 83 82 78 74 69 67 69 73 75 76 75 71 69 67 63 59 55 53 52 52 50 49 47 44 43 48 54 56 56 53 50 47 43 38 38 36 31 30 31 30 32 34 30 25 20 11 359 343 332 327 314 287 263 249
142 140 137 135 134 132 133 134 135 136 137 136 136 136 132 127 125 121 117 117 116 108 105 104 101 103 102 95 92 90 85 84 86 83 79 77 79 80 81 80 78 74 71 68 65 63 60 57 55 52 51 52 54 54 55 55 59 63 64 61 56 52 50 46 41 38 37 35 34 35 35 36 40 45 48 48 48 46 45 42 34 26 12 334 294
145 143 142 140 137 138 141 142 142 143 140 139 139 136 129 127 126 125 121 118 114 110 111 110 106 106 106 100 96 91 89 91 90 87 87 87 87 86 82 80 77 73 69 66 61 60 61 58 56 54 53 55 57 59 61 62 65 67 67 64 59 55 52 49 45 41 39 37 37 38 40 41 43 48 54 57 58 57 56 55 53 50 46 41 30
143 143 145 146 145 147 149 147 145 145 142 142 142 135 128 128 127 125 124 121 114 114 114 110 107 110 109 104 99 94 92 94 93 93 93 92 90 86 81 79 77 72 68 63 59 59 59 57 57 57 57 58 60 63 64 65 67 70 69 66 61 58 55 50 46 44 43 43 43 42 43 45 48 50 53 56 60 62 62 61 61 61 58 56 52
143 147 151 151 144 142 143 142 142 143 141 142 140 134 130 130 128 125 125 120 115 117 115 109 110 113 109 105 105 101 96 96 98 98 96 93 89 85 82 81 78 70 63 61 61 60 58 58 59 60 61 62 63 65 68 69 69 69 69 66 62 59 56 51 47 45 46 46 46 46 45 48 53 57 56 53 55 60 62 62 62 62 61 60 58
146 146 147 144 141 141 140 138 138 139 139 138 135 131 130 129 126 126 124 120 120 120 116 113 114 112 108 107 108 106 101 101 103 101 96 93 90 87 85 83 78 70 66 65 61 60 61 61 61 64 65 65 67 70 71 71 70 68 67 65 62 58 56 52 48 48 49 47 45 47 51 54 57 60 61 60 60 61 62 61 60 59 59 60 59
149 148 150 149 147 146 142 138 137 137 137 134 132 132 129 125 125 124 121 119 121 118 116 116 114 109 107 108 110 110 106 105 106 102 97 94 92 89 87 84 81 78 76 72 63 62 67 67 67 68 65 63 68 73 74 74 73 71 70 68 63 58 57 55 50 49 53 54 53 54 58 61 62 63 67 71 72 70 68 65 61 59 59 60 59
136 141 147 146 145 142 137 136 138 138 136 134 134 134 128 124 124 123 121 122 119 114 114 114 112 110 108 108 113 112 107 108 107 100 95 96 95 93 90 87 85 83 79 75 71 70 71 71 71 70 64 60 66 74 78 79 79 77 75 73 69 63 60 58 56 55 57 60 61 62 64 64 63 65 70 74 73 71 68 66 63 61 62 61 59
126 131 134 135 135 134 134 137 137 136 135 136 137 133 125 121 123 124 125 124 118 113 113 114 115 114 109 110 116 114 108 107 104 96 96 99 98 97 95 93 91 87 81 78 78 76 73 72 72 71 68 64 65 72 80 83 84 83 79 75 74 73 70 65 63 63 63 62 63 65 66 67 66 66 68 71 72 70 66 63 61 60 61 58 56
131 135 136 135 132 132 135 137 134 131 134 136 134 129 121 118 122 125 123 119 116 115 117 117 118 114 109 111 116 112 107 108 106 104 105 105 102 100 99 98 96 92 86 83 81 79 75 72 72 72 72 68 65 68 76 82 85 87 83 79 76 75 73 68 65 65 65 64 64 65 66 68 69 68 66 67 70 71 67 63 62 62 60 56 55
134 136 134 132 134 135 135 134 131 133 138 137 130 121 116 118 122 121 117 115 115 119 120 119 119 114 107 112 117 112 108 111 113 112 111 110 107 105 102 101 98 94 90 86 83 80 78 74 72 72 72 71 68 66 71 77 81 85 86 83 78 71 69 68 67 64 63 63 64 64 64 67 69 69 68 68 70 72 71 67 65 65 64 62 60
137 137 133 132 136 136 133 131 134 139 141 139 131 119 114 122 125 116 113 118 120 125 127 123 120 115 107 112 119 115 110 114 116 116 115 112 109 107 104 101 97 94 92 88 84 82 80 76 75 73 71 71 72 71 71 75 78 81 85 85 82 75 70 71 71 67 63 62 62 64 65 66 68 69 70 70 72 74 75 73 72 72 72 72 68
129 134 135 133 131 129 127 127 135 140 140 139 132 122 121 129 124 113 117 124 125 130 130 124 120 116 110 114 118 114 112 117 118 116 115 112 108 108 105 101 98 95 93 89 84 81 80 76 76 75 72 71 73 75 76 76 77 79 81 84 85 83 81 79 74 68 64 63 64 66 68 69 70 71 71 72 73 75 76 76 76 76 75 73 70
129 135 138 133 125 120 121 125 134 138 138 135 128 122 128 132 121 117 129 132 132 134 130 123 120 117 114 116 117 115 116 118 118 116 114 111 108 108 106 102 99 95 91 88 83 81 80 77 74 73 73 72 74 77 79 79 79 80 81 84 86 86 85 84 79 72 68 69 70 72 73 73 73 73 73 74 74 74 75 76 75 75 73 70 67
131 136 138 134 126 120 120 125 133 136 132 127 125 127 133 131 125 131 138 136 135 135 128 122 121 120 120 120 119 120 120 118 117 117 115 111 109 108 105 101 98 93 89 86 81 78 80 78 74 72 72 73 75 78 81 83 83 83 84 85 86 86 86 86 84 79 77 78 77 77 78 77 76 76 75 74 74 73 73 73 73 72 70 66 62
133 136 138 136 130 126 123 123 129 134 129 124 130 136 135 132 134 140 140 137 136 133 126 123 124 124 126 125 123 122 121 119 117 116 112 110 108 105 102 98 94 90 86 84 81 79 79 78 77 74 72 73 77 80 83 85 85 85 85 86 86 86 87 87 86 84 83 83 83 82 81 79 78 77 75 74 72 71 70 70 69 69 67 64 60
126 129 133 131 126 125 124 122 126 134 132 128 135 139 136 137 143 143 141 140 137 131 127 127 127 126 127 126 122 120 119 118 117 114 112 110 107 103 99 94 91 88 86 84 83 82 81 80 79 77 75 76 79 81 83 85 86 85 87 88 87 88 89 89 88 87 86 86 84 83 81 79 77 76 75 73 72 70 69 67 65 65 64 63 62
129 132 134 130 125 125 127 124 125 132 136 136 139 140 140 144 147 144 143 142 137 131 129 129 128 126 125 123 120 117 115 113 110 109 108 107 105 103 99 92 88 87 86 85 85 83 83 83 81 79 79 78 78 80 83 85 86 86 87 90 91 91 90 89 88 87 85 84 83 82 81 80 78 76 74 72 70 69 68 65 63 62 63 64 64
135 138 137 132 127 129 129 125 125 133 140 142 141 141 144 148 148 146 146 141 135 133 132 130 129 127 124 122 119 117 114 111 108 105 103 101 101 101 98 94 92 90 88 88 88 85 85 86 84 83 82 78 75 77 80 84 87 89 90 92 93 92 91 91 89 88 87 85 83 82 79 77 75 71 67 65 64 64 65 65 64 62 62 64 66
133 135 138 137 134 132 130 127 130 138 142 142 141 144 148 150 149 149 148 142 136 135 133 130 129 127 124 122 119 117 114 111 108 105 102 100 99 98 97 95 94 94 94 95 94 92 91 90 88 86 84 81 79 78 78 81 85 89 92 95 95 94 94 94 93 91 88 84 79 75 71 68 66 65 62 60 60 60 61 62 63 63 61 62 65
132 133 139 140 139 137 134 133 135 141 142 141 142 145 149 151 153 153 150 145 139 134 129 127 127 125 124 123 120 117 115 112 108 106 103 101 100 99 97 96 94 92 93 93 93 94 94 92 91 89 86 86 86 84 82 80 82 86 90 93 95 95 95 95 94 91 86 79 73 70 67 63 62 62 62 60 59 60 60 60 61 63 64 65 66
134 134 136 139 140 138 137 137 140 143 143 142 144 148 151 154 156 156 152 147 142 134 127 124 126 126 125 124 121 119 117 115 111 110 108 105 103 100 97 97 96 93 90 88 88 89 90 90 91 91 88 86 86 85 84 83 84 87 90 92 93 94 93 93 92 88 83 76 70 67 66 63 63 63 62 61 59 60 60 59 59 62 66 69 69